Location: Dittelspoint
(48.7198°N, 10.7214°E)
Time: 22:03:44
(UTC+00:00)

Mayak - Pass Details

Date: 09 April 2020
Orbit: 581 x 601 km, 97.5° (Epoch: 27 May)

Event Time Altitude Azimuth Distance (km) Brightness Sun altitude
Rises 20:25:28 0° 28° (NNE) 2,821 ? -21.8°
Reaches altitude 10° 20:28:22 10° 51° (NE) 1,911 ? -22.1°
Enters shadow 20:28:27 10° 51° (NE) 1,891 ? -22.2°
